BRS2952 SBGL-SBVT

Flight info

Callsign BRS2952
Flight time 0h 44m
Altitude 25000
Route SBGL RWY 15 UTMI1A TISVA TODET MIKE1A VT007 RNV Z RWY 02 SBVT
Aircraft B738/M-V/N

Departure

Time 2026-04-27 03:02
Airport Rio Galeão – Tom Jobim International Airport (SBGL)

Arrival

Time 2026-04-27 03:46
Airport Eurico de Aguiar Salles International Airport (SBVT)
Time Latitude Longitude Altitude Speed Heading
2026-04-27 02:55 -22.83150 -43.23957 26 ft 0 kts 306°
2026-04-27 02:57 -22.83103 -43.24003 27 ft 17 kts 341°
2026-04-27 02:57 -22.83001 -43.23983 30 ft 12 kts 19°
2026-04-27 02:58 -22.82979 -43.23971 31 ft 0 kts 27°
2026-04-27 02:58 -22.82891 -43.23901 33 ft 30 kts 37°
2026-04-27 02:59 -22.82770 -43.23831 36 ft 14 kts 340°
2026-04-27 02:59 -22.82703 -43.23911 35 ft 15 kts 306°
2026-04-27 02:59 -22.82525 -43.24181 30 ft 82 kts 305°
2026-04-27 02:59 -22.82153 -43.24740 26 ft 92 kts 306°
2026-04-27 03:00 -22.81792 -43.25278 25 ft 85 kts 305°
2026-04-27 03:00 -22.81458 -43.25784 23 ft 78 kts 308°
2026-04-27 03:00 -22.81177 -43.26197 20 ft 45 kts 306°
2026-04-27 03:00 -22.81162 -43.26350 17 ft 18 kts 188°
2026-04-27 03:01 -22.81273 -43.26328 16 ft 13 kts 143°
2026-04-27 03:01 -22.81298 -43.26293 16 ft 0 kts 124°
2026-04-27 03:01 -22.81324 -43.26253 16 ft 34 kts 125°
2026-04-27 03:01 -22.81646 -43.25761 21 ft 121 kts 126°
2026-04-27 03:02 -22.82281 -43.24802 41 ft 188 kts 126°
2026-04-27 03:02 -22.83013 -43.23690 1137 ft 179 kts 123°
2026-04-27 03:02 -22.83563 -43.22462 1924 ft 191 kts 97°
2026-04-27 03:02 -22.83404 -43.21055 2664 ft 195 kts 65°
2026-04-27 03:03 -22.82731 -43.19691 3119 ft 216 kts 59°
2026-04-27 03:03 -22.81234 -43.16575 4316 ft 249 kts 63°
2026-04-27 03:03 -22.80467 -43.14829 4933 ft 265 kts 64°
2026-04-27 03:04 -22.79669 -43.13000 5726 ft 272 kts 64°
2026-04-27 03:04 -22.78855 -43.11144 6529 ft 278 kts 64°
2026-04-27 03:04 -22.78016 -43.09237 7380 ft 282 kts 64°
2026-04-27 03:04 -22.77160 -43.07299 8190 ft 287 kts 64°
2026-04-27 03:05 -22.76300 -43.05353 8974 ft 291 kts 63°
2026-04-27 03:05 -22.75430 -43.03350 9756 ft 296 kts 66°
2026-04-27 03:05 -22.74751 -43.01239 10399 ft 306 kts 73°
2026-04-27 03:05 -22.74223 -42.98934 10796 ft 322 kts 76°
2026-04-27 03:06 -22.73741 -42.96502 11166 ft 338 kts 77°
2026-04-27 03:06 -22.73242 -42.93955 11521 ft 353 kts 77°
2026-04-27 03:06 -22.72703 -42.91295 11835 ft 368 kts 76°
2026-04-27 03:06 -22.72137 -42.88582 12322 ft 376 kts 76°
2026-04-27 03:07 -22.71548 -42.85810 12914 ft 381 kts 76°
2026-04-27 03:07 -22.70947 -42.83006 13446 ft 386 kts 76°
2026-04-27 03:07 -22.70331 -42.80150 14018 ft 390 kts 76°
2026-04-27 03:07 -22.69705 -42.77250 14562 ft 395 kts 76°
2026-04-27 03:08 -22.69075 -42.74335 15115 ft 399 kts 76°
2026-04-27 03:08 -22.68443 -42.71413 15646 ft 403 kts 75°
2026-04-27 03:08 -22.67793 -42.68405 16145 ft 408 kts 76°
2026-04-27 03:08 -22.67148 -42.65422 16689 ft 410 kts 75°
2026-04-27 03:09 -22.66495 -42.62408 17178 ft 414 kts 75°
2026-04-27 03:09 -22.65839 -42.59380 17672 ft 417 kts 75°
2026-04-27 03:09 -22.65169 -42.56289 18128 ft 422 kts 75°
2026-04-27 03:09 -22.64500 -42.53205 18583 ft 425 kts 75°
2026-04-27 03:10 -22.63818 -42.50069 19017 ft 429 kts 75°
2026-04-27 03:10 -22.63133 -42.46918 19432 ft 433 kts 75°
2026-04-27 03:10 -22.62433 -42.43710 19881 ft 436 kts 75°
2026-04-27 03:10 -22.61740 -42.40531 20347 ft 438 kts 75°
2026-04-27 03:11 -22.61033 -42.37294 20746 ft 442 kts 75°
2026-04-27 03:11 -22.60325 -42.34052 21137 ft 446 kts 74°
2026-04-27 03:11 -22.59571 -42.30800 21517 ft 448 kts 72°
2026-04-27 03:11 -22.58559 -42.27578 21876 ft 449 kts 64°
2026-04-27 03:12 -22.57133 -42.24619 22274 ft 447 kts 54°
2026-04-27 03:12 -22.55251 -42.21914 22658 ft 445 kts 44°
2026-04-27 03:12 -22.53058 -42.19568 23067 ft 444 kts 38°
2026-04-27 03:12 -22.51750 -42.18353 23339 ft 443 kts 36°
2026-04-27 03:13 -22.49977 -42.16807 23832 ft 439 kts 34°
2026-04-27 03:13 -22.47544 -42.14764 24426 ft 437 kts 33°
2026-04-27 03:13 -22.45165 -42.12785 24915 ft 436 kts 34°
2026-04-27 03:13 -22.42733 -42.10743 25000 ft 439 kts 34°
2026-04-27 03:14 -22.40356 -42.08712 24999 ft 437 kts 35°
2026-04-27 03:14 -22.37967 -42.06635 24993 ft 435 kts 35°
2026-04-27 03:14 -22.35624 -42.04573 24998 ft 436 kts 36°
2026-04-27 03:14 -22.33279 -42.02493 24992 ft 437 kts 36°
2026-04-27 03:15 -22.30918 -42.00387 24987 ft 436 kts 36°
2026-04-27 03:15 -22.28584 -41.98300 24987 ft 435 kts 36°
2026-04-27 03:15 -22.26247 -41.96207 24986 ft 435 kts 36°
2026-04-27 03:15 -22.23933 -41.94134 24984 ft 436 kts 36°
2026-04-27 03:16 -22.21567 -41.92014 24993 ft 436 kts 36°
2026-04-27 03:16 -22.19237 -41.89928 24994 ft 436 kts 36°
2026-04-27 03:16 -22.16904 -41.87838 24994 ft 435 kts 36°
2026-04-27 03:16 -22.14586 -41.85764 24998 ft 435 kts 36°
2026-04-27 03:17 -22.12236 -41.83662 24992 ft 434 kts 36°
2026-04-27 03:17 -22.09926 -41.81597 24993 ft 434 kts 36°
2026-04-27 03:17 -22.07594 -41.79513 24996 ft 434 kts 36°
2026-04-27 03:17 -22.05266 -41.77434 24994 ft 434 kts 36°
2026-04-27 03:18 -22.02915 -41.75334 24994 ft 435 kts 36°
2026-04-27 03:18 -22.00590 -41.73259 24990 ft 435 kts 36°
2026-04-27 03:18 -21.98266 -41.71186 24992 ft 434 kts 36°
2026-04-27 03:18 -21.95922 -41.69096 25001 ft 434 kts 37°
2026-04-27 03:19 -21.93601 -41.67029 25005 ft 433 kts 37°
2026-04-27 03:19 -21.91289 -41.64969 25008 ft 434 kts 37°
2026-04-27 03:19 -21.88948 -41.62885 25009 ft 433 kts 37°
2026-04-27 03:19 -21.86622 -41.60814 25008 ft 433 kts 37°
2026-04-27 03:20 -21.84273 -41.58725 25010 ft 432 kts 37°
2026-04-27 03:20 -21.81961 -41.56668 25008 ft 431 kts 37°
2026-04-27 03:20 -21.79663 -41.54625 25006 ft 431 kts 37°
2026-04-27 03:20 -21.77333 -41.52555 25004 ft 432 kts 37°
2026-04-27 03:21 -21.75021 -41.50502 24994 ft 432 kts 37°
2026-04-27 03:21 -21.72708 -41.48448 24986 ft 432 kts 37°
2026-04-27 03:21 -21.70366 -41.46371 24983 ft 432 kts 37°
2026-04-27 03:21 -21.68046 -41.44312 24984 ft 431 kts 37°
2026-04-27 03:22 -21.65742 -41.42271 24981 ft 431 kts 37°
2026-04-27 03:22 -21.63412 -41.40206 24980 ft 431 kts 37°
2026-04-27 03:22 -21.61097 -41.38154 24974 ft 432 kts 37°
2026-04-27 03:22 -21.58775 -41.36098 24977 ft 431 kts 37°
2026-04-27 03:23 -21.56450 -41.34040 24975 ft 431 kts 36°
2026-04-27 03:23 -21.54133 -41.31991 24973 ft 431 kts 36°
2026-04-27 03:23 -21.51788 -41.29918 24970 ft 431 kts 36°
2026-04-27 03:23 -21.49494 -41.27890 24975 ft 430 kts 36°
2026-04-27 03:24 -21.47168 -41.25835 24974 ft 430 kts 36°
2026-04-27 03:24 -21.44873 -41.23806 24973 ft 430 kts 37°
2026-04-27 03:24 -21.42557 -41.21761 24971 ft 429 kts 37°
2026-04-27 03:24 -21.40254 -41.19727 24969 ft 429 kts 37°
2026-04-27 03:25 -21.37946 -41.17690 24971 ft 429 kts 37°
2026-04-27 03:25 -21.35651 -41.15663 24964 ft 417 kts 37°
2026-04-27 03:25 -21.33449 -41.13714 24965 ft 403 kts 37°
2026-04-27 03:25 -21.31293 -41.11809 24836 ft 404 kts 37°
2026-04-27 03:26 -21.29104 -41.09882 24477 ft 407 kts 37°
2026-04-27 03:26 -21.26926 -41.07967 23982 ft 405 kts 37°
2026-04-27 03:26 -21.24730 -41.06037 23440 ft 403 kts 37°
2026-04-27 03:26 -21.22577 -41.04145 22871 ft 398 kts 37°
2026-04-27 03:27 -21.20461 -41.02284 22394 ft 391 kts 37°
2026-04-27 03:27 -21.18357 -41.00434 21859 ft 391 kts 37°
2026-04-27 03:27 -21.16245 -40.98580 21321 ft 391 kts 37°
2026-04-27 03:27 -21.14133 -40.96727 20779 ft 391 kts 37°
2026-04-27 03:28 -21.12024 -40.94877 20233 ft 391 kts 37°
2026-04-27 03:28 -21.09930 -40.93040 19692 ft 391 kts 37°
2026-04-27 03:28 -21.07815 -40.91186 19141 ft 390 kts 37°
2026-04-27 03:28 -21.05722 -40.89352 18585 ft 389 kts 37°
2026-04-27 03:29 -21.03622 -40.87508 18036 ft 389 kts 37°
2026-04-27 03:29 -21.01547 -40.85686 17450 ft 384 kts 37°
2026-04-27 03:29 -20.99504 -40.83894 16950 ft 371 kts 38°
2026-04-27 03:29 -20.97532 -40.82164 16442 ft 360 kts 38°
2026-04-27 03:30 -20.95623 -40.80490 15938 ft 350 kts 38°
2026-04-27 03:30 -20.93758 -40.78857 15444 ft 340 kts 38°
2026-04-27 03:30 -20.91954 -40.77278 14975 ft 331 kts 38°
2026-04-27 03:30 -20.90197 -40.75742 14504 ft 323 kts 38°
2026-04-27 03:31 -20.88431 -40.74200 14051 ft 335 kts 38°
2026-04-27 03:31 -20.86604 -40.72606 13573 ft 345 kts 39°
2026-04-27 03:31 -20.84728 -40.70968 13051 ft 344 kts 39°
2026-04-27 03:31 -20.82877 -40.69352 12567 ft 343 kts 39°
2026-04-27 03:32 -20.81064 -40.67703 12058 ft 341 kts 44°
2026-04-27 03:32 -20.79482 -40.65823 11563 ft 339 kts 52°
2026-04-27 03:32 -20.78081 -40.63817 11079 ft 337 kts 55°
2026-04-27 03:32 -20.76749 -40.61772 10560 ft 329 kts 56°
2026-04-27 03:33 -20.75485 -40.59810 10300 ft 311 kts 56°
2026-04-27 03:33 -20.74294 -40.57982 10171 ft 289 kts 56°
2026-04-27 03:33 -20.73176 -40.56287 10028 ft 271 kts 56°
2026-04-27 03:33 -20.72109 -40.54686 9724 ft 258 kts 56°
2026-04-27 03:34 -20.71060 -40.53122 9332 ft 254 kts 56°
2026-04-27 03:34 -20.70045 -40.51617 9023 ft 247 kts 56°
2026-04-27 03:34 -20.69063 -40.50163 8707 ft 238 kts 56°
2026-04-27 03:34 -20.68105 -40.48747 8431 ft 227 kts 56°
2026-04-27 03:35 -20.67198 -40.47405 8162 ft 216 kts 56°
2026-04-27 03:35 -20.66344 -40.46143 7911 ft 204 kts 56°
2026-04-27 03:35 -20.65525 -40.44930 7654 ft 197 kts 55°
2026-04-27 03:35 -20.64741 -40.43769 7410 ft 190 kts 55°
2026-04-27 03:36 -20.63981 -40.42646 7179 ft 183 kts 55°
2026-04-27 03:36 -20.63236 -40.41544 6958 ft 181 kts 55°
2026-04-27 03:36 -20.62500 -40.40457 6734 ft 181 kts 55°
2026-04-27 03:36 -20.61757 -40.39359 6504 ft 182 kts 55°
2026-04-27 03:37 -20.61012 -40.38259 6273 ft 181 kts 55°
2026-04-27 03:37 -20.60278 -40.37176 6049 ft 182 kts 55°
2026-04-27 03:37 -20.59536 -40.36081 5821 ft 180 kts 55°
2026-04-27 03:37 -20.58806 -40.35003 5599 ft 178 kts 54°
2026-04-27 03:38 -20.58088 -40.33945 5377 ft 176 kts 54°
2026-04-27 03:38 -20.57369 -40.32884 5153 ft 175 kts 54°
2026-04-27 03:38 -20.56656 -40.31833 4939 ft 173 kts 53°
2026-04-27 03:38 -20.55947 -40.30788 4720 ft 173 kts 53°
2026-04-27 03:39 -20.55245 -40.29753 4501 ft 171 kts 53°
2026-04-27 03:39 -20.54544 -40.28719 4324 ft 169 kts 53°
2026-04-27 03:39 -20.53855 -40.27704 4239 ft 169 kts 53°
2026-04-27 03:39 -20.53159 -40.26678 4191 ft 170 kts 53°
2026-04-27 03:40 -20.52465 -40.25657 4135 ft 170 kts 52°
2026-04-27 03:40 -20.51665 -40.24726 4064 ft 169 kts 33°
2026-04-27 03:40 -20.50547 -40.24335 3920 ft 170 kts
2026-04-27 03:40 -20.49368 -40.24466 3715 ft 169 kts 352°
2026-04-27 03:41 -20.48205 -40.24657 3517 ft 166 kts 354°
2026-04-27 03:41 -20.47068 -40.24822 3335 ft 166 kts 354°
2026-04-27 03:41 -20.45922 -40.24988 3147 ft 165 kts 354°
2026-04-27 03:41 -20.44774 -40.25158 3015 ft 163 kts 354°
2026-04-27 03:42 -20.43648 -40.25325 2898 ft 164 kts 354°
2026-04-27 03:42 -20.42516 -40.25493 2775 ft 162 kts 354°
2026-04-27 03:42 -20.41420 -40.25655 2674 ft 155 kts 354°
2026-04-27 03:42 -20.40352 -40.25814 2542 ft 150 kts 354°
2026-04-27 03:43 -20.39305 -40.25968 2393 ft 152 kts 354°
2026-04-27 03:43 -20.38259 -40.26123 2237 ft 145 kts 354°
2026-04-27 03:43 -20.37273 -40.26270 2101 ft 143 kts 355°
2026-04-27 03:43 -20.36288 -40.26415 1971 ft 142 kts 355°
2026-04-27 03:44 -20.35293 -40.26562 1845 ft 143 kts 355°
2026-04-27 03:44 -20.34306 -40.26708 1725 ft 145 kts 355°
2026-04-27 03:44 -20.33301 -40.26857 1467 ft 143 kts 355°
2026-04-27 03:44 -20.32313 -40.27002 1254 ft 143 kts 355°
2026-04-27 03:45 -20.31331 -40.27147 1077 ft 142 kts 354°
2026-04-27 03:45 -20.30343 -40.27293 854 ft 144 kts 354°
2026-04-27 03:45 -20.29354 -40.27440 639 ft 143 kts 354°
2026-04-27 03:45 -20.28347 -40.27589 430 ft 144 kts 353°
2026-04-27 03:46 -20.27347 -40.27732 236 ft 141 kts 353°
2026-04-27 03:46 -20.26405 -40.27882 15 ft 124 kts 351°
2026-04-27 03:46 -20.25837 -40.27965 15 ft 42 kts 347°
2026-04-27 03:46 -20.25498 -40.28014 15 ft 52 kts 352°
2026-04-27 03:47 -20.25218 -40.28061 15 ft 23 kts 352°
2026-04-27 03:47 -20.25068 -40.28115 14 ft 22 kts 326°
2026-04-27 03:47 -20.25082 -40.28227 13 ft 17 kts 211°
2026-04-27 03:47 -20.25205 -40.28305 15 ft 30 kts 211°
2026-04-27 03:48 -20.25402 -40.28424 14 ft 32 kts 212°
2026-04-27 03:48 -20.25592 -40.28550 13 ft 31 kts 211°
2026-04-27 03:48 -20.25742 -40.28656 13 ft 18 kts 241°
2026-04-27 03:48 -20.25715 -40.28774 13 ft 16 kts 284°
2026-04-27 03:49 -20.25777 -40.28848 13 ft 13 kts 214°
2026-04-27 03:49 -20.25816 -40.28875 13 ft 0 kts 216°
2026-04-27 03:49 -20.25820 -40.28885 13 ft 1 kts 265°
2026-04-27 03:49 -20.25815 -40.28896 13 ft 3 kts 304°
2026-04-27 03:50 -20.25805 -40.28912 13 ft 1 kts 300°
2026-04-27 03:50 -20.25803 -40.28916 13 ft 0 kts 301°